User: anonymous   Login
Location: Newark
(35.2161°N, 26.1013°E)
Time: 14:49:55
(UTC+00:00)
Language:

Max Valier Satellite - Orbit

View from above orbital plane
View from above orbital plane
View from above satellite
View from above satellite

Ground track
Ground track

The orbit data is extracted from the following two-line orbital elements,

1 42778U 17036P   20017.78213636  .00000565  00000-0  27419-4 0  9994
2 42778  97.3277  75.4477 0012095 188.2152 171.8888 15.22353868142655
Epoch (UTC): 17 January 2020 18:46:16
Eccentricity: 0.0012095
inclination: 97.3277°
perigee height: 490 km
apogee height: 507 km
right ascension of ascending node: 75.4477°
argument of perigee: 188.2152°
revolutions per day: 15.22353868
mean anomaly at epoch: 171.8888°
orbit number at epoch: 14265

The dashed part of the orbit path shows where the satellite is in the earth's shadow,  

DLR